Probability
0 0 0 0 0 0 0 0 0 0 0 0 0 0 0 0 0 0 0 0 0 0 0 0 0 0 0 0 0 0 0 0 0 0 0 0 1 1
0 0 0 0 0 0 0 0 0 0 0 0 0 0 0 0 0 0 0 0 0 0 0 0 0 0 0 0 0 0 0 0 0 0 0 0 0 1
0 0 0 0 0 0 0 0 0 0 0 0 0 0 0 0 0 0 0 0 0 0 0 0 0 0 0 0 0 0 0 0 0 0 0 0 0 0
0 0 0 0 0 0 0 0 0 0 0 0 0 0 0 0 0 0 0 0 0 0 0 0 0 0 0 0 0 0 0 0 0 0 0 0 0 0
0 0 0 0 0 0 0 0 0 0 0 0 0 0 0 0 0 0 0 0 0 0 0 0 0 0 0 0 0 0 0 0 0 0 0 0 0 0
0 0 0 0 0 0 0 0 0 0 0 0 0 0 0 0 0 0 0 0 0 0 0 0 0 0 0 0 0 0 0 0 0 0 0 0 0 0
0 0 0 0 0 0 0 0 0 0 0 0 0 0 0 0 0 0 0 0 0 0 0 0 0 0 0 0 0 0 0 0 0 0 0 0 0 0
0 0 0 0 0 0 0 0 0 0 0 0 0 0 0 0 0 0 0 0 0 0 0 0 0 0 0 0 0 0 0 0 0 0 0 0 0 0
0 0 0 0 0 0 0 0 0 0 0 0 0 0 0 0 0 0 0 0 0 0 0 0 0 0 0 0 0 0 0 0 0 0 0 0 0 0
0 0 0 0 0 0 0 0 0 0 0 0 0 0 0 0 0 0 0 0 0 0 0 0 0 0 0 0 0 0 0 0 0 0 0 0 0 0
0 0 0 0 0 0 0 0 0 0 0 0 0 0 0 0 0 0 0 0 0 0 0 0 0 0 0 0 0 0 0 0 0 0 0 0 0 0
0 0 0 0 0 0 0 0 0 0 0 0 0 0 0 0 0 0 0 0 0 0 0 0 0 0 0 0 0 0 0 0 0 0 0 0 0 0
0 0 0 0 0 0 0 0 0 0 0 0 0 0 0 0 0 0 0 0 0 0 0 0 0 0 0 0 0 0 0 0 0 0 0 0 0 0
0 0 0 0 0 0 0 0 0 0 0 0 0 0 0 0 0 0 0 0 0 0 0 0 0 0 0 0 0 0 0 0 0 0 0 0 0 0
0 0 0 0 0 0 0 0 0 0 0 0 0 0 0 0 0 0 0 0 0 0 0 0 0 0 0 0 0 0 0 0 0 0 0 0 0 0
0 0 0 0 0 0 0 0 0 0 0 0 0 0 0 0 0 0 0 0 0 0 0 0 0 0 0 0 0 0 0 0 0 0 0 0 0 0
0 0 0 0 0 0 0 0 0 0 0 0 0 0 0 0 0 0 0 0 0 0 0 0 0 0 0 0 0 0 0 0 0 0 0 0 0 0
0 0 0 0 0 0 0 0 0 0 0 0 0 0 0 0 0 0 0 0 0 0 0 0 0 0 0 0 0 0 0 0 0 0 0 0 0 0
0 0 0 0 0 0 0 0 0 0 0 0 0 0 0 0 0 0 0 0 0 0 0 0 0 0 0 0 0 0 0 0 0 0 0 0 0 0
0 0 0 0 0 0 0 0 0 0 0 0 0 0 0 0 0 0 0 0 0 0 0 0 0 0 0 0 0 0 0 0 0 0 0 0 0 0
0 0 0 0 0 0 0 0 0 0 0 0 0 0 0 0 0 0 0 0 0 0 0 0 0 0 0 0 0 0 0 0 0 0 0 0 0 0
0 0 0 0 0 0 0 0 0 0 0 0 0 0 0 0 0 0 0 0 0 0 0 0 0 0 0 0 0 0 0 0 0 0 0 0 0 0
0 0 0 0 0 0 0 0 0 0 0 0 0 0 0 0 0 0 0 0 0 0 0 0 0 0 0 0 0 0 0 0 0 0 0 0 0 0
Wind_Speed
3 4 3 3 3 3 3 3 3 4 4 3 2 2 2 2 5 4 4 8 9 9 9 9 9 9 10 10 11 11 12 13 13 13 13 13 14 14
3 3 4 3 3 3 3 3 4 4 5 2 3 3 3 4 6 4 4 10 10 9 9 9 9 9 10 10 11 11 12 12 12 13 13 13 13 14
3 3 4 4 3 3 3 3 3 3 5 4 3 3 3 4 5 3 4 4 5 9 9 9 9 9 10 10 11 11 12 12 12 12 12 13 13 13
4 3 4 3 4 3 3 3 3 3 4 6 4 3 4 4 4 4 4 4 4 8 9 10 10 10 10 11 11 11 11 12 11 11 12 12 12 12
4 4 4 3 4 3 3 3 3 3 2 3 4 3 3 3 3 4 4 4 5 6 8 9 10 11 11 11 11 11 11 11 11 11 11 11 11 11
4 4 4 3 4 4 3 3 3 2 2 2 3 3 3 3 2 3 4 3 4 4 6 7 8 10 10 11 11 11 11 11 11 11 10 9 9 10
3 3 3 4 5 4 3 3 2 2 2 2 3 3 3 3 3 3 4 4 4 3 3 4 4 4 5 8 10 10 11 11 10 10 9 9 9 9
3 3 3 4 5 6 6 5 3 3 3 3 3 4 4 4 3 3 4 4 4 2 3 4 3 4 4 4 8 10 10 10 10 9 8 8 8 9
2 2 3 3 4 3 4 5 4 6 6 4 4 5 5 4 3 4 4 4 5 4 3 5 3 4 4 5 10 9 9 9 9 8 8 7 7 8
2 2 3 3 3 3 2 2 2 3 4 3 4 5 4 3 3 4 4 4 4 3 2 4 3 4 5 4 8 8 9 10 9 8 7 6 6 7
2 3 3 2 4 5 2 2 3 3 4 5 5 5 6 6 4 2 2 3 4 3 1 2 3 4 4 4 5 8 8 8 7 7 7 6 6 5
2 2 4 4 5 5 2 1 3 3 3 4 4 5 4 4 5 3 3 3 3 3 1 2 2 2 3 3 2 3 4 6 7 6 6 6 5 2
2 2 2 5 6 6 4 2 3 4 2 2 3 3 2 2 2 2 2 3 3 3 2 2 2 2 2 4 3 3 3 3 3 4 5 5 5 3
2 2 2 5 6 6 4 4 5 4 2 2 2 2 2 2 3 3 3 3 3 4 4 3 2 2 3 3 4 3 3 3 2 2 2 3 3 4
2 4 4 5 5 4 4 5 4 2 1 2 2 2 3 3 3 2 3 3 3 3 3 3 2 2 2 2 3 3 3 3 2 2 2 1 1 1
2 3 4 5 4 3 3 3 2 1 2 2 2 2 2 2 2 2 3 3 2 3 3 2 2 2 2 2 2 3 2 2 3 2 2 1 1 1
1 1 1 2 2 2 2 2 1 2 2 2 2 2 2 2 3 2 2 2 2 3 3 3 2 1 1 2 2 2 2 2 2 2 2 2 1 1
1 1 1 1 2 2 2 2 2 2 2 2 2 2 2 3 3 3 2 2 2 2 2 3 3 3 2 2 2 2 2 2 2 2 1 1 1 2
1 1 1 2 2 2 2 2 2 2 2 2 2 2 2 2 2 2 2 2 2 2 2 2 2 2 2 2 3 3 2 2 2 1 1 1 1 1
1 1 2 2 2 2 2 2 2 2 2 2 2 2 2 2 2 2 2 2 2 2 2 2 2 2 1 1 2 3 4 2 1 1 1 1 1 1
2 2 2 2 2 2 2 3 3 2 2 2 2 2 2 2 2 2 2 2 2 1 1 2 3 3 1 1 1 2 3 5 4 1 1 1 1 1
2 2 2 2 2 2 2 3 2 2 2 2 2 2 2 2 2 2 2 1 1 1 1 2 2 2 2 1 2 2 3 4 5 7 6 4 1 1
2 2 2 2 2 2 2 3 3 2 2 2 2 2 2 2 2 1 2 1 0 0 1 1 2 2 2 1 1 2 3 3 3 4 5 7 7 5
Wind_Direction
238 239 240 242 240 241 236 230 238 273 278 250 260 274 285 287 300 301 296 304 306 308 306 306 306 305 303 304 306 306 305 304 302 297 292 290 288 287
246 243 241 242 242 240 235 236 233 245 266 261 262 282 288 298 301 302 301 308 309 308 306 306 307 306 305 304 303 303 302 300 298 294 291 289 288 288
257 253 254 245 237 237 234 238 238 235 262 280 277 285 284 290 299 299 299 294 297 305 303 305 304 303 303 304 303 303 303 302 299 296 293 291 290 290
258 257 261 262 253 239 232 238 241 233 247 276 289 293 291 289 296 299 303 303 291 302 303 303 302 302 301 302 302 304 305 304 302 296 294 294 294 297
248 249 258 259 266 258 243 241 240 242 242 262 285 291 296 301 304 300 299 296 294 301 303 301 301 303 302 301 302 304 305 304 302 300 296 293 295 298
254 250 249 250 254 261 256 247 240 235 235 257 278 291 294 296 294 302 308 299 298 306 305 300 299 302 301 301 301 304 304 304 301 299 298 292 292 294
267 262 259 266 269 274 267 257 249 240 250 260 272 286 287 297 295 291 291 296 294 286 292 295 300 298 298 300 306 306 302 301 300 296 296 296 295 291
268 273 271 273 281 286 286 277 261 253 256 258 266 272 280 277 281 286 288 299 303 291 290 296 299 296 296 292 302 305 305 306 301 295 293 296 300 301
270 277 288 290 300 286 292 302 298 285 272 263 263 268 273 279 280 284 282 285 284 290 293 292 293 289 293 300 305 304 308 309 307 306 302 300 303 302
286 275 270 277 285 290 286 305 301 298 287 270 256 265 270 271 263 263 268 280 288 290 278 282 288 288 298 298 306 308 313 313 309 309 314 311 310 308
293 290 288 275 295 307 308 301 306 309 309 294 285 286 290 292 293 291 288 296 298 295 270 260 280 296 296 290 301 310 314 315 317 320 321 321 317 310
300 299 302 307 311 320 310 292 296 300 314 325 320 316 309 304 304 282 267 279 293 290 267 265 281 307 306 291 300 315 315 322 328 328 330 332 332 321
298 306 304 317 321 326 328 307 294 306 314 315 317 319 322 319 315 303 283 264 269 271 269 267 274 278 274 295 304 310 316 317 320 318 323 339 346 349
282 288 293 314 322 327 326 319 317 320 314 318 323 322 318 313 311 309 301 286 268 264 266 263 262 273 283 293 300 311 321 323 325 321 319 330 341 351
292 304 316 324 326 325 324 325 329 327 318 315 308 305 303 300 305 311 314 310 308 301 288 267 264 272 273 279 291 307 315 318 328 332 341 351 349 355
317 325 334 333 327 318 322 327 324 306 299 290 292 300 310 314 315 314 311 312 325 329 332 325 294 285 285 284 280 300 312 309 329 341 345 356 17 34
311 341 337 331 338 339 333 331 330 324 314 305 296 300 307 313 314 316 315 317 314 316 329 336 334 320 303 286 293 309 318 324 322 337 358 7 11 19
356 334 317 315 313 315 316 317 316 312 307 300 297 298 304 308 312 316 318 318 319 322 323 326 333 341 351 5 346 310 322 325 335 351 5 33 11 4
349 301 287 292 297 300 300 300 300 303 300 294 293 293 296 303 306 307 314 319 323 329 332 333 343 353 357 343 340 358 345 340 345 359 5 29 29 0
327 299 294 292 289 290 292 295 294 300 301 298 296 294 292 294 297 303 308 311 316 323 336 353 356 342 311 292 309 338 355 354 352 349 355 30 46 16
311 300 292 290 288 287 287 284 280 281 286 289 291 296 295 289 288 295 296 301 313 322 328 324 306 316 318 10 33 3 5 15 22 7 356 39 39 40
302 299 295 290 287 282 280 282 284 283 285 284 288 293 294 287 282 284 286 290 300 303 312 323 338 358 23 37 27 12 8 10 25 35 37 42 78 63
296 296 294 292 287 284 280 281 282 283 284 285 288 289 289 290 291 292 290 283 298 1 2 352 2 25 27 32 36 28 28 22 28 40 43 38 46 47